JAT556 SCIE-SCFA

Flight info

Callsign JAT556
Flight time N/A
Altitude 38000
Route SOSTA5M SOSTA UT105 TOY UV200 DOVRI UQ802 LONEK LONEK2A
Aircraft A320/M-SDE3FGHIRWY/LB1

Departure

Time 2026-04-24 15:52
Airport Carriel Sur International Airport (SCIE)

Arrival

Time N/A
Airport Andrés Sabella Gálvez International Airport (SCFA)
Time Latitude Longitude Altitude Speed Heading
2026-04-24 15:35 -36.77630 -73.05902 30 ft 0 kts 200°
2026-04-24 15:40 -36.77624 -73.05899 30 ft 3 kts 200°
2026-04-24 15:41 -36.77605 -73.05890 30 ft 3 kts 200°
2026-04-24 15:41 -36.77588 -73.05882 30 ft 3 kts 210°
2026-04-24 15:41 -36.77574 -73.05868 30 ft 3 kts 252°
2026-04-24 15:41 -36.77573 -73.05845 30 ft 3 kts 291°
2026-04-24 15:42 -36.77578 -73.05832 30 ft 0 kts 296°
2026-04-24 15:44 -36.77576 -73.05836 30 ft 1 kts 296°
2026-04-24 15:44 -36.77568 -73.05855 30 ft 3 kts 297°
2026-04-24 15:45 -36.77557 -73.05890 30 ft 5 kts 289°
2026-04-24 15:45 -36.77547 -73.05944 30 ft 7 kts 279°
2026-04-24 15:45 -36.77544 -73.06002 30 ft 7 kts 272°
2026-04-24 15:45 -36.77534 -73.06064 30 ft 7 kts 289°
2026-04-24 15:46 -36.77511 -73.06123 30 ft 8 kts 297°
2026-04-24 15:46 -36.77475 -73.06179 30 ft 8 kts 334°
2026-04-24 15:46 -36.77420 -73.06166 30 ft 9 kts 25°
2026-04-24 15:46 -36.77355 -73.06129 30 ft 13 kts 24°
2026-04-24 15:47 -36.77258 -73.06073 30 ft 17 kts 25°
2026-04-24 15:47 -36.77149 -73.06009 30 ft 18 kts 25°
2026-04-24 15:47 -36.77041 -73.05945 29 ft 16 kts 26°
2026-04-24 15:47 -36.76937 -73.05883 30 ft 16 kts 25°
2026-04-24 15:48 -36.76834 -73.05823 30 ft 16 kts 25°
2026-04-24 15:48 -36.76731 -73.05764 30 ft 17 kts 25°
2026-04-24 15:48 -36.76628 -73.05704 30 ft 16 kts 25°
2026-04-24 15:48 -36.76527 -73.05647 30 ft 12 kts 24°
2026-04-24 15:49 -36.76453 -73.05605 30 ft 10 kts 24°
2026-04-24 15:49 -36.76389 -73.05591 30 ft 10 kts 350°
2026-04-24 15:49 -36.76347 -73.05633 29 ft 6 kts 302°
2026-04-24 15:49 -36.76341 -73.05648 29 ft 0 kts 296°
2026-04-24 15:50 -36.76335 -73.05663 29 ft 5 kts 296°
2026-04-24 15:50 -36.76313 -73.05724 28 ft 9 kts 285°
2026-04-24 15:50 -36.76339 -73.05784 28 ft 8 kts 216°
2026-04-24 15:51 -36.76354 -73.05794 28 ft 0 kts 205°
2026-04-24 15:51 -36.76355 -73.05795 28 ft 1 kts 205°
2026-04-24 15:51 -36.76447 -73.05849 30 ft 43 kts 205°
2026-04-24 15:51 -36.76933 -73.06129 28 ft 108 kts 205°
2026-04-24 15:52 -36.77762 -73.06611 49 ft 152 kts 205°
2026-04-24 15:52 -36.78711 -73.07158 666 ft 149 kts 205°
2026-04-24 15:52 -36.79678 -73.07718 1188 ft 159 kts 211°
2026-04-24 15:52 -36.80437 -73.08776 1496 ft 176 kts 246°
2026-04-24 15:53 -36.80483 -73.10376 1841 ft 200 kts 286°
2026-04-24 15:53 -36.79649 -73.11870 2226 ft 227 kts 316°
2026-04-24 15:53 -36.78264 -73.13027 2620 ft 251 kts 326°
2026-04-24 15:53 -36.76703 -73.14170 3247 ft 266 kts 327°
2026-04-24 15:54 -36.75088 -73.15305 4158 ft 268 kts 327°
2026-04-24 15:54 -36.73445 -73.16458 5003 ft 273 kts 327°
2026-04-24 15:54 -36.71695 -73.17403 5840 ft 279 kts 343°
2026-04-24 15:54 -36.69751 -73.17663 6701 ft 284 kts
2026-04-24 15:55 -36.67800 -73.17165 7491 ft 289 kts 18°
2026-04-24 15:55 -36.65906 -73.16274 8268 ft 293 kts 18°
2026-04-24 15:55 -36.63990 -73.15374 9038 ft 296 kts 18°
2026-04-24 15:55 -36.62022 -73.14453 9803 ft 300 kts 17°
2026-04-24 15:56 -36.60076 -73.13548 10454 ft 307 kts 17°
2026-04-24 15:56 -36.57993 -73.12587 10830 ft 323 kts 17°
2026-04-24 15:56 -36.55835 -73.11594 11153 ft 339 kts 17°
2026-04-24 15:56 -36.53586 -73.10552 11591 ft 350 kts 17°
2026-04-24 15:57 -36.51277 -73.09484 12066 ft 359 kts 17°
2026-04-24 15:57 -36.48916 -73.08388 12646 ft 364 kts 17°
2026-04-24 15:57 -36.47338 -73.07653 13041 ft 367 kts 17°
2026-04-24 15:57 -36.44117 -73.06157 13878 ft 372 kts 17°
2026-04-24 15:58 -36.41685 -73.05033 14459 ft 375 kts 17°
2026-04-24 15:58 -36.39229 -73.03900 15014 ft 378 kts 17°
2026-04-24 15:58 -36.36758 -73.02759 15574 ft 380 kts 17°
2026-04-24 15:58 -36.34269 -73.01610 16135 ft 383 kts 17°
2026-04-24 15:59 -36.31787 -73.00379 16673 ft 387 kts 22°
2026-04-24 15:59 -36.29450 -72.98672 17203 ft 393 kts 30°
2026-04-24 15:59 -36.27153 -72.96799 17749 ft 396 kts 30°
2026-04-24 15:59 -36.24843 -72.94922 18296 ft 399 kts 29°
2026-04-24 16:00 -36.22510 -72.93038 18813 ft 402 kts 29°
2026-04-24 16:00 -36.20158 -72.91146 19286 ft 404 kts 29°
2026-04-24 16:00 -36.17789 -72.89242 19758 ft 408 kts 29°
2026-04-24 16:00 -36.16210 -72.87975 20070 ft 410 kts 29°
2026-04-24 16:01 -36.13810 -72.86053 20536 ft 413 kts 28°
2026-04-24 16:01 -36.11359 -72.84086 21002 ft 416 kts 28°
2026-04-24 16:01 -36.08930 -72.82132 21463 ft 418 kts 28°
2026-04-24 16:01 -36.06482 -72.80162 21893 ft 421 kts 28°
2026-04-24 16:02 -36.04021 -72.78181 22310 ft 424 kts 28°
2026-04-24 16:02 -36.01544 -72.76190 22739 ft 427 kts 28°
2026-04-24 16:02 -35.99044 -72.74183 23182 ft 429 kts 28°
2026-04-24 16:02 -35.96524 -72.72162 23625 ft 432 kts 28°
2026-04-24 16:03 -35.93996 -72.70141 24003 ft 435 kts 28°
2026-04-24 16:03 -35.91446 -72.68105 24361 ft 438 kts 28°
2026-04-24 16:03 -35.88882 -72.66057 24724 ft 440 kts 28°
2026-04-24 16:03 -35.86309 -72.64002 25077 ft 442 kts 28°
2026-04-24 16:04 -35.83669 -72.62065 25421 ft 440 kts 21°
2026-04-24 16:04 -35.80851 -72.60637 25758 ft 436 kts 12°
2026-04-24 16:04 -35.77918 -72.59769 26091 ft 432 kts
2026-04-24 16:04 -35.74955 -72.59147 26420 ft 434 kts
2026-04-24 16:05 -35.68975 -72.57850 27084 ft 438 kts
2026-04-24 16:05 -35.65962 -72.57186 27422 ft 441 kts
2026-04-24 16:06 -35.59900 -72.55852 28099 ft 445 kts
2026-04-24 16:06 -35.56848 -72.55187 28428 ft 447 kts
2026-04-24 16:06 -35.50692 -72.53859 29106 ft 450 kts
2026-04-24 16:07 -35.47608 -72.53194 29578 ft 449 kts
2026-04-24 16:07 -35.44529 -72.52527 30041 ft 449 kts
2026-04-24 16:07 -35.38395 -72.51191 30847 ft 447 kts
2026-04-24 16:08 -35.35334 -72.50528 31227 ft 446 kts
2026-04-24 16:08 -35.29183 -72.49203 32004 ft 445 kts
2026-04-24 16:09 -35.23100 -72.47899 32795 ft 443 kts
2026-04-24 16:09 -35.20059 -72.47247 33187 ft 442 kts
2026-04-24 16:09 -35.17030 -72.46597 33581 ft 442 kts
2026-04-24 16:09 -35.14001 -72.45947 33977 ft 441 kts
2026-04-24 16:10 -35.04962 -72.44009 34929 ft 440 kts
2026-04-24 16:11 -34.98940 -72.42721 35475 ft 439 kts
2026-04-24 16:11 -34.95927 -72.42078 35741 ft 439 kts
2026-04-24 16:11 -34.92919 -72.41436 36003 ft 439 kts
2026-04-24 16:12 -34.86905 -72.40151 36502 ft 439 kts
2026-04-24 16:12 -34.83895 -72.39513 36747 ft 439 kts
2026-04-24 16:12 -34.77887 -72.38238 37224 ft 438 kts
2026-04-24 16:13 -34.74879 -72.37600 37444 ft 438 kts
2026-04-24 16:13 -34.68879 -72.36325 37904 ft 438 kts
2026-04-24 16:14 -34.62875 -72.35049 38247 ft 439 kts 360°
2026-04-24 16:14 -34.53774 -72.33137 38270 ft 444 kts 360°
2026-04-24 16:15 -34.44637 -72.31197 38271 ft 444 kts 360°
2026-04-24 16:16 -34.35514 -72.29275 38268 ft 444 kts 360°
2026-04-24 16:17 -34.20252 -72.26066 38269 ft 444 kts 360°
2026-04-24 16:18 -34.08074 -72.23525 38270 ft 444 kts 360°
2026-04-24 16:19 -33.98949 -72.21612 38266 ft 444 kts 360°
2026-04-24 16:20 -33.89825 -72.19704 38265 ft 443 kts 360°
2026-04-24 16:20 -33.80704 -72.17816 38264 ft 443 kts 359°
2026-04-24 16:21 -33.71599 -72.15941 38260 ft 443 kts 360°
2026-04-24 16:22 -33.65532 -72.14677 38266 ft 443 kts 360°
2026-04-24 16:22 -33.56432 -72.12789 38256 ft 442 kts 360°
2026-04-24 16:23 -33.50367 -72.11546 38254 ft 442 kts 360°
2026-04-24 16:24 -33.41282 -72.09668 38251 ft 442 kts 360°
2026-04-24 16:24 -33.35189 -72.08407 38250 ft 441 kts 360°
2026-04-24 16:25 -33.29139 -72.07163 38251 ft 441 kts 360°
2026-04-24 16:25 -33.23090 -72.05925 38247 ft 441 kts 360°
2026-04-24 16:26 -33.14028 -72.04077 38248 ft 440 kts 360°
2026-04-24 16:27 -33.04980 -72.02225 38240 ft 439 kts 359°
2026-04-24 16:27 -32.98956 -72.00994 38239 ft 439 kts 359°
2026-04-24 16:28 -32.92935 -71.99770 38236 ft 439 kts 359°
2026-04-24 16:28 -32.83916 -71.97940 38234 ft 438 kts 359°
2026-04-24 16:29 -32.77918 -71.96727 38232 ft 437 kts 359°
2026-04-24 16:30 -32.65928 -71.94298 38229 ft 436 kts 359°
2026-04-24 16:30 -32.59948 -71.93092 38235 ft 436 kts 359°
2026-04-24 16:31 -32.54021 -71.91899 38227 ft 435 kts 359°
2026-04-24 16:31 -32.48364 -71.90762 38230 ft 435 kts 359°
2026-04-24 16:32 -32.42439 -71.89571 38229 ft 434 kts 359°
2026-04-24 16:32 -32.37484 -71.88578 38234 ft 434 kts 359°
2026-04-24 16:33 -32.31516 -71.87380 38188 ft 438 kts 356°
2026-04-24 16:33 -32.25579 -71.86192 38181 ft 441 kts 356°
2026-04-24 16:34 -32.20165 -71.85111 38180 ft 443 kts 356°
2026-04-24 16:34 -32.14268 -71.83933 38189 ft 443 kts 356°
2026-04-24 16:35 -32.08178 -71.82712 38198 ft 444 kts 356°
2026-04-24 16:35 -32.03004 -71.81672 38202 ft 444 kts 356°
2026-04-24 16:36 -31.97011 -71.80476 38208 ft 444 kts 356°
2026-04-24 16:36 -31.91140 -71.79308 38213 ft 444 kts 356°
2026-04-24 16:37 -31.85049 -71.78105 38213 ft 443 kts 356°
2026-04-24 16:37 -31.79113 -71.76931 38214 ft 443 kts 356°
2026-04-24 16:38 -31.73049 -71.75726 38217 ft 443 kts 355°
2026-04-24 16:38 -31.67025 -71.74534 38217 ft 442 kts 355°
2026-04-24 16:39 -31.61328 -71.73403 38212 ft 442 kts 355°
2026-04-24 16:39 -31.55272 -71.72206 38213 ft 441 kts 355°
2026-04-24 16:40 -31.52315 -71.71626 38211 ft 441 kts 355°
2026-04-24 16:40 -31.48708 -71.70920 38205 ft 440 kts 354°
2026-04-24 16:41 -31.42667 -71.69731 38203 ft 440 kts 354°
2026-04-24 16:41 -31.36639 -71.68541 38201 ft 439 kts 354°
2026-04-24 16:42 -31.30616 -71.67353 38198 ft 439 kts 354°
2026-04-24 16:42 -31.24594 -71.66174 38194 ft 438 kts 353°
2026-04-24 16:43 -31.18838 -71.65054 38190 ft 438 kts 353°
2026-04-24 16:43 -31.13842 -71.64063 38190 ft 437 kts 353°
2026-04-24 16:44 -31.07849 -71.62895 38189 ft 436 kts 353°
2026-04-24 16:44 -31.02444 -71.61850 38181 ft 436 kts 353°
2026-04-24 16:45 -30.96464 -71.60677 38171 ft 435 kts 352°
2026-04-24 16:45 -30.90518 -71.59518 38168 ft 435 kts 352°
2026-04-24 16:46 -30.84552 -71.58356 38169 ft 434 kts 352°
2026-04-24 16:46 -30.78589 -71.57195 38169 ft 434 kts 352°
2026-04-24 16:47 -30.72598 -71.56040 38170 ft 433 kts 352°
2026-04-24 16:47 -30.66651 -71.54889 38163 ft 434 kts 352°
2026-04-24 16:48 -30.60700 -71.53734 38156 ft 433 kts 352°
2026-04-24 16:48 -30.54749 -71.52581 38153 ft 433 kts 352°
2026-04-24 16:49 -30.48805 -71.51434 38157 ft 433 kts 352°
2026-04-24 16:49 -30.42865 -71.50291 38153 ft 432 kts 352°
2026-04-24 16:50 -30.36929 -71.49147 38152 ft 432 kts 352°
2026-04-24 16:50 -30.31005 -71.48008 38156 ft 431 kts 352°
2026-04-24 16:51 -30.25078 -71.46833 38150 ft 434 kts 353°
2026-04-24 16:51 -30.19142 -71.45432 38163 ft 437 kts 354°
2026-04-24 16:52 -30.13208 -71.43943 38157 ft 436 kts 354°
2026-04-24 16:52 -30.07284 -71.42489 38157 ft 434 kts 354°
2026-04-24 16:53 -30.01374 -71.41086 38159 ft 433 kts 354°
2026-04-24 16:53 -29.95467 -71.39696 38162 ft 433 kts 354°
2026-04-24 16:54 -29.89570 -71.38305 38165 ft 433 kts 354°
2026-04-24 16:54 -29.83632 -71.36906 38167 ft 432 kts 354°
2026-04-24 16:55 -29.77738 -71.35514 38160 ft 432 kts 354°
2026-04-24 16:55 -29.71846 -71.34110 38162 ft 432 kts 354°
2026-04-24 16:56 -29.65954 -71.32705 38155 ft 432 kts 355°
2026-04-24 16:56 -29.60064 -71.31309 38157 ft 432 kts 355°
2026-04-24 16:57 -29.54174 -71.29912 38171 ft 432 kts 355°
2026-04-24 16:57 -29.48289 -71.28523 38154 ft 432 kts 355°
2026-04-24 16:58 -29.42402 -71.27137 38155 ft 431 kts 355°
2026-04-24 16:58 -29.36532 -71.25762 38148 ft 430 kts 354°
2026-04-24 16:59 -29.30665 -71.24384 38152 ft 430 kts 355°
2026-04-24 17:00 -29.21882 -71.22326 38135 ft 428 kts 355°
2026-04-24 17:00 -29.13110 -71.20277 38141 ft 429 kts 355°
2026-04-24 17:01 -29.04342 -71.18225 38139 ft 428 kts 355°
2026-04-24 17:02 -28.95600 -71.16186 38128 ft 427 kts 355°
2026-04-24 17:02 -28.89771 -71.14831 38117 ft 427 kts 356°
2026-04-24 17:03 -28.80999 -71.12790 38111 ft 427 kts 356°
2026-04-24 17:04 -28.75169 -71.11436 38105 ft 427 kts 356°
2026-04-24 17:04 -28.66441 -71.09421 38109 ft 427 kts 356°
2026-04-24 17:05 -28.60613 -71.08068 38104 ft 427 kts 356°
2026-04-24 17:06 -28.51875 -71.06046 38104 ft 428 kts 356°
2026-04-24 17:06 -28.44098 -71.04260 38117 ft 428 kts 356°
2026-04-24 17:07 -28.38253 -71.02916 38128 ft 429 kts 356°
2026-04-24 17:08 -28.26574 -71.00225 38122 ft 428 kts 356°
2026-04-24 17:08 -28.20704 -70.98881 38121 ft 428 kts 356°
2026-04-24 17:09 -28.09027 -70.96203 38113 ft 428 kts 357°
2026-04-24 17:10 -27.97349 -70.93519 38108 ft 428 kts 357°
2026-04-24 17:12 -27.73929 -70.88173 38127 ft 430 kts 357°